Regional Weather Roundup
Issued by NWS Grand Forks, ND

Home | Current Version | Previous Version | Text Only | Print | Product List | Glossary On
Versions: 1 2 3 4 5 6 7 8 9 10 11 12 13 14 15 16 17 18 19 20 21 22 23 24 25 26 27 28 29 30 31 32 33 34 35 36 37 38 39 40 41 42 43 44 45 46 47 48 49 50
000
ASUS43 KFGF 020631
RWRFGF
PRAIRIE TO PINES  WEATHER ROUNDUP
NATIONAL WEATHER SERVICE EASTERN NORTH DAKOTA/GRAND FORKS ND
100 AM CDT THU OCT 02 2014

 **SATELLITE DATA USED TO AUGMENT SKY COVER AT AUTOMATED STATIONS**
 *****  WEATHER ACROSS EASTERN NORTH DAKOTA  *****

CITY           SKY/WX    TMP DP  RH WIND       PRES   REMARKS
GRAND FORKS    CLOUDY    57  49  74 W7        29.77R
6HR MIN TEMP:  57; 6HR MAX TEMP:  62;

GRAND FRKS AFB CLOUDY    56  51  85 W8        29.78R
GRAND FRKS NWS   N/A     54 N/A N/A NW9         N/A
DEVILS LAKE    CLEAR     50  43  76 W10       29.78S
6HR MIN TEMP:  48; 6HR MAX TEMP:  59;

FARGO          CLOUDY    59  50  72 W9        29.80R
WAHPETON ARPT  CLOUDY    54  46  76 W7        29.83R
$$

 ***** WEATHER ACROSS CENTRAL AND WESTERN NORTH DAKOTA  *****

CITY           SKY/WX    TMP DP  RH WIND       PRES   REMARKS
BISMARCK       PTCLDY    49  46  90 W7        29.88R
6HR MIN TEMP:  49; 6HR MAX TEMP:  59;

MINOT          MOCLDY    50  44  80 SW10      29.81R
6HR MIN TEMP:  48; 6HR MAX TEMP:  55;

JAMESTOWN      CLEAR     48  45  89 W6        29.83S
6HR MIN TEMP:  48; 6HR MAX TEMP:  59;

MINOT AFB      CLOUDY    50  48  95 W10       29.80R
GARRISON         N/A     46  43  89 W9        29.84S
WILLISTON      CLEAR     45  41  86 CALM      29.86R
6HR MIN TEMP:  44; 6HR MAX TEMP:  55;

DICKINSON      CLEAR     42  39  89 W8        29.88F
6HR MIN TEMP:  41; 6HR MAX TEMP:  54; 6HR PCP: TRACE;

HETTINGER      CLEAR     39  37  92 NW5       29.93S
6HR MIN TEMP:  39; 6HR MAX TEMP:  53;

$$

 *****  OTHER AIRPORT OBSERVATIONS IN OUR AREA  *****

CITY           SKY/WX    TMP DP  RH WIND       PRES   REMARKS
WALHALLA         N/A     54  48  82 W5        29.75R
GRAFTON AIRPOR FAIR      52  48  87 W7        29.76R
VALLEY CITY AR FAIR      48  48 100 W9        29.83R
CANDO          FAIR      43  41  93 W7        29.79R
CAVALIER APRT  MOCLDY    52  46  82 W7        29.75R
GWINNER          N/A     54  50  87 W6        29.86R
SHEYENNE NWR     N/A     52  49  89 W6        29.95S
ROLLA          CLOUDY    41  41 100 SW7       29.78R
 ***** THE ABOVE OBSERVATIONS ARE NON NWS ARE NOT QUALITY
       CONTROLLED AND MAY MIS-REPORT RAIN FOR SNOW...
$$

  *****  WEATHER ACROSS NORTHERN MINNESOTA  *****

CITY           SKY/WX    TMP DP  RH WIND       PRES   REMARKS
FLAG ISLAND    MOCLDY    54  50  87 SW10      29.68S
WARROAD        CLOUDY    54  50  87 SW8       29.72S
ROSEAU         CLOUDY    55  50  82 W6        29.72S
HALLOCK        PTCLDY    54  48  82 W6        29.74R
THF RVR FALLS  CLOUDY    55  50  82 W9        29.76R
6HR MIN TEMP:  55; 6HR MAX TEMP:  61;

BAUDETTE       CLEAR     54  51  90 SW6       29.72R
6HR MIN TEMP:  54; 6HR MAX TEMP:  57;

WASKISH        MOCLDY    57  52  82 SW6       29.75S
CROOKSTON      CLOUDY    57  52  82 W7        29.78R
STEPHEN NDAWN    N/A     55  52  88 W6          N/A
GREENBUSH NDAW   N/A     55  50  82 W6          N/A
$$
  *****  WEATHER ACROSS CENTRAL AND WEST MINNESOTA  *****

CITY           SKY/WX    TMP DP  RH WIND       PRES   REMARKS
FOSSTON        CLOUDY    54  48  82 SW7       29.78R
BEMIDJI        CLEAR     53  49  89 SW5       29.77S
PARK RAPIDS    CLEAR     50  47  89 S5        29.79S
6HR MIN TEMP:  50; 6HR MAX TEMP:  57;

ELBOW LAKE     FAIR      50  47  90 CALM      29.84R
6HR MIN TEMP:  48; 6HR MAX TEMP:  61;

WADENA         CLEAR     48  46  93 W6        29.81R
DETROIT LAKES  CLOUDY    55  50  82 W7        29.81S
MOORHEAD       NOT AVBL
FERGUS FALLS   CLOUDY    52  46  82 W5        29.83S
MORRIS MN      CLEAR     50  46  87 W3        29.84R
STAPLES        FOG       46  46 100 S3        29.81S VSB 1/2
$$
  *****  WEATHER ELSEWHERE ACROSS MINNESOTA  *****

CITY           SKY/WX    TMP DP  RH WIND       PRES   REMARKS
DULUTH         FOG       52  50  93 SW5       29.83F VSB 1/4
6HR MIN TEMP:  51; 6HR MAX TEMP:  52; 6HR PCP:  0.01;

INTRNTL FALLS  CLOUDY    55  53  93 S6        29.73S
6HR MIN TEMP:  53; 6HR MAX TEMP:  55;

ELY            CLOUDY    52  48  87 SW5       29.80S
CLOQUET        FOG       52  52 100 S3        29.82F VSB 1/2
WHEATON        MOCLDY    54  48  82 W7        29.86R
BRAINERD       CLOUDY    54  53  97 S7        29.82S FOG
6HR MIN TEMP:  52; 6HR MAX TEMP:  54;

HIBBING        FOG       52  50  93 S5        29.81S VSB 1
6HR MIN TEMP:  51; 6HR MAX TEMP:  52;

ALEXANDRIA     CLEAR     50  47  89 W6        29.84S
6HR MIN TEMP:  50; 6HR MAX TEMP:  62;

SAINT CLOUD    CLOUDY    59  56  89 SW3       29.83S FOG
6HR MIN TEMP:  57; 6HR MAX TEMP:  59;

MINNEAPOLIS    CLOUDY    57  56  96 E5        29.82S FOG
6HR MIN TEMP:  57; 6HR MAX TEMP:  59;

$$

  *****  WEATHER ACROSS SOUTH DAKOTA  *****

CITY           SKY/WX    TMP DP  RH WIND       PRES   REMARKS
SIOUX FALLS    CLEAR     54  50  86 N6        29.85R
6HR MIN TEMP:  54; 6HR MAX TEMP:  68;

BROOKINGS      NOT AVBL
WATERTOWN      CLEAR     50  47  89 NW6       29.86S
6HR MIN TEMP:  49; 6HR MAX TEMP:  63;

HURON          PTCLDY    48  45  89 CALM      29.88S
6HR MIN TEMP:  48; 6HR MAX TEMP:  68;

SISSETON         N/A     51  49  92 NW8       29.84R
ABERDEEN       PTCLDY    47  44  90 CALM      29.88R
6HR MIN TEMP:  47; 6HR MAX TEMP:  61;

MITCHELL       MOCLDY    50  47  89 NW6       29.88F
PIERRE         LGT RAIN  54  49  83 W5        29.90F
6HR MIN TEMP:  49; 6HR MAX TEMP:  59; 6HR PCP: TRACE;

MOBRIDGE       CLOUDY    52  48  86 NW6       29.88R
RAPID CITY     CLOUDY    44  38  79 W3        29.98R
6HR MIN TEMP:  44; 6HR MAX TEMP:  53;

$$

  *****  SOME WEATHER IN NEARBY STATES *****

CITY           SKY/WX    TMP DP  RH WIND       PRES   REMARKS
GLASGOW MT     CLOUDY    45  39  79 SE9       29.83F
6HR MIN TEMP:  42; 6HR MAX TEMP:  59; 6HR PCP: TRACE;

GREAT FALLS MT CLEAR     42  31  64 SW13      29.94S
6HR MIN TEMP:  41; 6HR MAX TEMP:  54;

CHEYENNE WY    MOCLDY    39  36  89 NW8       30.07S
6HR MIN TEMP:  39; 6HR MAX TEMP:  43;

SCOTTSBLUFF NE PTCLDY    43  42  97 NW5       30.03S
6HR MIN TEMP:  43; 6HR MAX TEMP:  54; 6HR PCP:  0.02;

OMAHA NE       MOCLDY    62  60  93 N3        29.78F
6HR MIN TEMP:  62; 6HR MAX TEMP:  73;

DES MOINES IA  FOG       63  62  97 E5        29.79R VSB 1/8
6HR MIN TEMP:  62; 6HR MAX TEMP:  69;

DAVENPORT IA   NOT AVBL
CHICAGO IL     CLOUDY    66  53  63 S8        29.89R
6HR MIN TEMP:  65; 6HR MAX TEMP:  67;

EAU CLAIRE WI  CLOUDY    54  53  97 N3        29.83F FOG
6HR MIN TEMP:  53; 6HR MAX TEMP:  57;

LA CROSSE WI   CLOUDY    61  57  87 CALM      29.83R
6HR MIN TEMP:  60; 6HR MAX TEMP:  64;

$$

  *****  SOME NATIONAL WEATHER *****

CITY           SKY/WX    TMP DP  RH WIND       PRES   REMARKS
LA GUARDIA NY  CLOUDY    60  57  89 NE8       30.08R
6HR MIN TEMP:  60; 6HR MAX TEMP:  65; 6HR PCP: TRACE;

RALEIGH NC     PTCLDY    62  60  93 CALM      30.07R
6HR MIN TEMP:  61; 6HR MAX TEMP:  68;

ATLANTA GA     PTCLDY    69  62  78 SW3       30.04S
6HR MIN TEMP:  69; 6HR MAX TEMP:  79;

NEW ORLEANS LA PTCLDY    78  75  90 SE7       29.93F
6HR MIN TEMP:  78; 6HR MAX TEMP:  81;

OKLAHOMA CITY  MOCLDY    79  65  62 S10       29.72S
6HR MIN TEMP:  79; 6HR MAX TEMP:  87;

ALBUQUERQUE NM PTCLDY    63  36  36 N12       30.01R
6HR MIN TEMP:  63; 6HR MAX TEMP:  76;

SALT LAKE CITY CLEAR     45  36  70 SE9       30.20F
6HR MIN TEMP:  45; 6HR MAX TEMP:  56;

LOS ANGELES CA PTCLDY    67  63  87 CALM      29.88R


USA.gov is the U.S. government's official web portal to all federal, state and local government web resources and services.